Voltar ao catálogo

TITAN 3C TRANSTAGE DEB

LostMEO
NORAD 53647·DEBRIS·🇺🇸 United States

Lançado May 30, 1974 de Cape Canaveral Space Force Station

Loading…

Próximas Passagens (próximas 24 horas)

TLE

ObsoletoSource: Space-Track

Época: Sep 29, 2024, 15:10 UTC

1 53647U 74039D   24273.63213551  .00000067  00000-0  00000-0 0  9995
2 53647   4.3498 272.7542 0236171 232.5063 124.8340  1.00609122    19

Acompanhe TITAN 3C TRANSTAGE DEB em tempo real com AllMySat

Download on the App Store